BREEZE-M DEB [TANK]

Last updated on Nov. 9, 2019, 12:02 a.m. UTC

1 44627U 19067D   19311.53786096 -.00000296  00000-0 -11207-3 0  9998
2 44627  50.4388 164.9990 5843665 185.7831 162.3104  4.19970371  1224
UTC
Height (km)
Latitude
Longitude
Inclination
Orbital Period
UTC large
Height (km)
Speed (km/s)
/
Latitude / Longitude
Inclination (degrees)
Orbital Period (minutes)
Azimuth
Elevation
Range (km)
Doppler Factor
iOS Compass Heading
iOS Angle

Next 30 passes for location: Hong Kong

Rise time Rise Azimuth (degrees) Set time Set Azimuth (degrees) Duration Max altitude (degrees)

No matching passes for this satellites